Torna al catalogo

STARLINK-35816

AttivoComunicazioniVLEO
NORAD 66499·PAYLOAD·🇺🇸 United States

Lanciato Nov 15, 2025 da Cape Canaveral Space Force Station

Loading…

Prossimi Passaggi (prossime 24 ore)

TLE

AggiornatoSource: CelesTrak SupGP

Epoca: Sep 15, 2026, 03:43 UTC

1 66499C 25263Q   26258.15534722  .00043662  00000+0  15817-2 0  2586
2 66499  43.0013   1.0262 0001515 273.4686   6.2634 15.27551799    19

Traccia STARLINK-35816 in tempo reale con AllMySat

Download on the App Store